FW6620 Weather Reports


time (UTC)temp
F
wind
direction
speed
knots
gust
knots
rain 1hr
in
rain 24hr
in
rain mn
in
humidity
%
barometer
mb
20260504183547 80 81 1.7 7.0 0.00 0.02 0.01 65 1013.1
20260504183058 79 0 0.9 7.0 0.00 0.02 0.01 66 1013.4
20260504182547 79 30 2.6 7.0 0.00 0.02 0.01 66 1013.4
20260504182048 78 18 0.9 4.3 0.00 0.02 0.01 68 1013.6
20260504181600 78 0 0.9 4.3 0.00 0.02 0.01 69 1013.7
20260504181048 77 16 0.9 5.2 0.00 0.02 0.01 71 1013.6
20260504180546 77 59 0.9 5.2 0.00 0.02 0.01 70 1013.6
20260504180144 76 22 0.9 5.2 0.00 0.02 0.01 70 1013.6
20260504175547 76 18 0.9 7.0 0.00 0.02 0.01 71 1013.7
20260504175049 76 14 0.9 7.0 0.00 0.02 0.01 71 1013.9
20260504174556 75 25 0.0 4.3 0.00 0.02 0.01 72 1013.9
20260504174049 75 0 0.0 3.5 0.00 0.02 0.01 71 1013.9
20260504173546 75 26 0.9 4.3 0.00 0.02 0.01 71 1014.4
20260504173127 75 0 0.0 4.3 0.00 0.02 0.01 71 1014.5
20260504172547 75 0 0.9 5.2 0.00 0.02 0.01 71 1014.5
20260504172047 75 19 0.9 5.2 0.00 0.02 0.01 71 1014.6
20260504171558 75 103 1.7 9.6 0.00 0.02 0.01 71 1014.6
20260504171047 75 27 1.7 9.6 0.00 0.02 0.01 72 1014.6
20260504170550 74 46 0.9 8.7 0.00 0.02 0.01 73 1014.6
20260504151047 70 24 0.0 6.1 0.00 0.03 0.01 78 1015.4
20260504150547 70 0 1.7 6.1 0.00 0.03 0.01 77 1015.6
20260504141047 66 56 0.0 6.1 0.00 0.03 0.01 81 1015.5
20260504140547 66 0 1.7 6.1 0.00 0.03 0.01 82 1015.7
20260504140109 65 0 0.9 3.5 0.00 0.03 0.01 83 1015.7
20260504130546 61 0 0.0 2.6 0.00 0.03 0.01 89 1015.7
20260504120112 59 0 0.0 0.0 0.00 0.03 0.01 88 1015.0
20260504110547 60 0 0.0 0.0 0.00 0.03 0.01 87 1015.4
20260504100549 61 0 0.0 1.7 0.01 0.04 0.01 85 1015.5
20260504081552 63 0 0.0 2.6 0.00 0.03 0.00 80 1016.0
20260504081047 63 0 0.0 2.6 0.00 0.03 0.00 79 1016.2
20260504080546 64 0 0.0 2.6 0.00 0.03 0.00 79 1016.1
20260504050546 66 0 0.9 3.5 0.00 0.03 0.00 70 1018.1
20260504050138 66 33 0.0 3.5 0.00 0.03 0.00 69 1018.0
20260504045545 66 27 0.0 2.6 0.00 0.03 0.03 69 1018.2
20260504045047 67 0 0.0 4.3 0.00 0.03 0.03 69 1018.1
20260504044559 66 0 0.0 4.3 0.00 0.03 0.03 69 1018.3
20260504044047 66 21 0.0 3.5 0.00 0.03 0.03 68 1018.2
20260504043547 66 21 0.0 3.5 0.00 0.03 0.03 68 1018.1
20260504043100 66 23 0.0 5.2 0.00 0.03 0.03 69 1018.2
20260504042546 66 0 0.9 5.2 0.00 0.03 0.03 69 1018.3
20260504042046 65 0 0.9 4.3 0.00 0.03 0.03 69 1018.3
20260504041555 64 20 0.0 2.6 0.00 0.03 0.03 70 1018.3
20260504041048 63 0 0.0 2.6 0.00 0.03 0.03 71 1018.3
20260504040548 63 0 0.0 2.6 0.00 0.03 0.03 72 1018.2
20260504040104 62 0 0.0 0.0 0.00 0.03 0.03 75 1018.3
20260504035547 62 0 0.0 0.0 0.00 0.04 0.03 75 1018.2
20260504035046 62 0 0.0 0.0 0.00 0.04 0.03 74 1018.2
20260504034553 62 0 0.0 0.0 0.00 0.04 0.03 74 1018.3
20260504034046 62 0 0.0 0.0 0.00 0.04 0.03 75 1018.2
20260504033545 62 0 0.0 0.0 0.00 0.04 0.03 72 1018.4
20260504033051 62 0 0.0 0.0 0.00 0.04 0.03 72 1018.4
20260504032546 62 0 0.0 0.0 0.00 0.04 0.03 71 1018.2
20260504032046 63 0 0.0 0.0 0.00 0.04 0.03 69 1018.2
20260504031604 63 0 0.0 0.0 0.00 0.04 0.03 70 1018.1
20260504031045 63 0 0.0 0.0 0.00 0.04 0.03 69 1018.1
20260504030545 63 0 0.0 0.0 0.00 0.04 0.03 70 1018.2
20260504030051 64 0 0.0 0.0 0.00 0.04 0.03 69 1018.0
20260504025547 64 0 0.0 0.0 0.00 0.04 0.03 67 1017.9
20260504025045 65 0 0.0 0.0 0.00 0.04 0.03 69 1018.0
20260504024550 65 0 0.0 0.0 0.00 0.04 0.03 67 1018.0
20260504024047 65 0 0.0 0.0 0.00 0.04 0.03 66 1017.9
20260504023547 66 0 0.0 0.0 0.00 0.04 0.03 68 1017.9
20260504023055 66 0 0.0 0.0 0.00 0.04 0.03 65 1017.9
20260504022547 66 0 0.0 0.0 0.00 0.04 0.03 64 1017.8
20260504022047 67 0 0.0 0.0 0.00 0.04 0.03 65 1018.0
20260504021603 67 0 0.0 0.0 0.00 0.04 0.03 63 1018.0
20260504021045 67 0 0.0 0.0 0.00 0.04 0.03 63 1018.0
20260504020545 67 0 0.0 0.0 0.00 0.04 0.03 63 1017.9
20260504020051 68 0 0.0 0.0 0.00 0.04 0.03 62 1017.9
20260504015546 68 0 0.0 0.0 0.00 0.04 0.03 62 1017.8
20260504015047 69 0 0.0 0.0 0.00 0.04 0.03 62 1017.6
20260504014557 70 0 0.0 0.0 0.00 0.04 0.03 59 1017.4
20260504014046 70 0 0.0 0.0 0.00 0.04 0.03 58 1017.3
20260504013546 71 0 0.0 0.9 0.00 0.04 0.03 58 1017.2
20260504013056 72 0 0.0 0.9 0.00 0.04 0.03 58 1017.3
20260504012545 72 0 0.0 0.9 0.00 0.04 0.03 56 1017.2
20260504012045 73 0 0.0 0.9 0.00 0.04 0.03 52 1017.3
20260504011600 73 0 0.0 0.9 0.00 0.04 0.03 49 1017.3
20260504011048 73 0 0.0 1.7 0.00 0.04 0.03 49 1017.2
20260504010545 74 0 0.0 1.7 0.00 0.04 0.03 49 1017.3
20260504010113 74 0 0.0 2.6 0.00 0.04 0.03 49 1017.1
20260504005547 74 0 0.0 2.6 0.00 0.04 0.03 48 1017.3
20260504005046 74 0 0.9 2.6 0.00 0.04 0.03 47 1017.2
20260504004556 74 0 0.0 2.6 0.00 0.04 0.03 49 1017.3
20260504004046 75 0 0.0 3.5 0.00 0.04 0.03 47 1017.3
20260504003545 75 0 0.0 3.5 0.00 0.04 0.03 45 1017.3
20260504003055 75 0 0.0 2.6 0.00 0.04 0.03 46 1017.3
20260504002545 75 14 0.0 2.6 0.00 0.04 0.03 44 1017.4
20260504002045 75 14 0.0 2.6 0.00 0.04 0.03 44 1017.5
20260504001611 75 19 0.0 2.6 0.00 0.04 0.03 43 1017.5
20260504001048 76 0 0.0 2.6 0.00 0.04 0.03 43 1017.6
20260504000547 76 21 0.0 7.8 0.00 0.04 0.03 43 1017.7
20260504000111 76 0 0.9 7.8 0.00 0.04 0.03 42 1017.6
20260503235546 76 15 0.0 3.5 0.00 0.04 0.03 42 1017.8
20260503235047 76 33 0.0 3.5 0.00 0.04 0.03 42 1017.9
20260503234554 76 0 0.0 4.3 0.00 0.04 0.03 42 1017.9
20260503234046 76 0 1.7 4.3 0.00 0.04 0.03 42 1017.8
20260503233546 76 0 0.0 4.3 0.00 0.04 0.03 43 1017.9
20260503233102 76 25 0.9 4.3 0.00 0.04 0.03 42 1017.9
20260503232545 76 0 1.7 5.2 0.01 0.04 0.03 43 1018.0
20260503232045 76 0 0.0 5.2 0.01 0.04 0.03 45 1017.9
20260503231600 77 27 0.9 3.5 0.01 0.04 0.03 42 1018.0
20260503231045 77 26 0.9 4.3 0.01 0.04 0.03 42 1018.1
20260503230548 77 19 0.0 4.3 0.01 0.04 0.03 42 1017.9
20260503230051 77 19 0.9 4.3 0.01 0.04 0.03 41 1017.8
20260503225546 77 0 0.9 3.5 0.01 0.05 0.03 42 1017.9
20260503225049 77 19 0.0 3.5 0.01 0.05 0.03 43 1018.0
20260503224601 78 28 0.0 3.5 0.01 0.05 0.03 45 1018.1
20260503224047 78 28 0.9 3.5 0.01 0.05 0.03 42 1018.0
20260503223548 78 26 0.0 5.2 0.01 0.05 0.03 44 1018.2
20260503223054 78 41 0.0 5.2 0.01 0.05 0.03 42 1018.4
20260503222545 78 0 0.0 3.5 0.00 0.04 0.02 44 1018.3
20260503222045 78 35 0.0 3.5 0.00 0.04 0.02 43 1018.5
20260503221556 79 0 0.9 4.3 0.00 0.04 0.02 42 1018.4
20260503221049 79 0 0.9 5.2 0.00 0.04 0.02 42 1018.5
20260503220546 79 0 0.9 5.2 0.00 0.04 0.02 43 1018.6
20260503220054 79 20 0.0 5.2 0.00 0.04 0.02 46 1018.7
20260503215546 79 29 0.0 3.5 0.00 0.04 0.02 43 1018.7
20260503215045 79 0 0.9 4.3 0.00 0.04 0.02 44 1018.8
20260503214557 78 41 0.9 4.3 0.00 0.04 0.02 44 1018.8
20260503214050 78 0 0.9 7.0 0.00 0.04 0.02 42 1018.8
20260503213547 78 14 0.0 7.0 0.00 0.04 0.02 43 1018.9
20260503213125 79 4 0.0 7.0 0.00 0.04 0.02 40 1019.1
20260503212547 79 0 1.7 7.0 0.00 0.04 0.02 40 1019.2
20260503212050 79 35 0.9 5.2 0.00 0.04 0.02 41 1019.2
20260503211619 79 30 0.0 5.2 0.00 0.04 0.02 39 1019.2
20260503211047 79 26 0.9 5.2 0.00 0.04 0.02 41 1019.5
20260503210546 79 27 0.9 8.7 0.00 0.04 0.02 39 1019.4
20260503210047 79 22 2.6 8.7 0.00 0.04 0.02 40 1019.7
20260503205546 79 29 0.9 4.3 0.00 0.04 0.02 40 1019.8
20260503205047 79 33 0.9 7.0 0.00 0.04 0.02 40 1019.8
20260503204603 79 82 0.9 7.0 0.00 0.04 0.02 42 1019.8
20260503204046 79 0 0.0 4.3 0.00 0.04 0.02 43 1019.8
20260503203545 79 28 0.9 4.3 0.00 0.04 0.02 39 1020.0
20260503203049 79 25 0.0 7.8 0.00 0.04 0.02 41 1020.1
20260503202547 78 30 1.7 7.8 0.00 0.04 0.02 41 1020.4
20260503202048 78 33 0.9 3.5 0.00 0.04 0.02 41 1020.4
20260503201551 79 0 0.9 5.2 0.00 0.04 0.02 40 1020.5
20260503201046 79 0 1.7 8.7 0.00 0.04 0.02 39 1020.5
20260503200546 79 24 2.6 8.7 0.00 0.04 0.02 39 1020.5
20260503200052 79 46 1.7 5.2 0.00 0.04 0.02 39 1020.6
20260503195546 79 24 0.9 4.3 0.00 0.05 0.02 40 1020.8
20260503195046 79 0 0.0 4.3 0.00 0.05 0.02 39 1020.9
20260503194553 79 10 0.9 3.5 0.00 0.05 0.02 42 1020.9
20260503194046 79 0 0.9 4.3 0.00 0.05 0.02 40 1021.0
20260503193546 79 9 0.9 4.3 0.00 0.05 0.02 42 1021.0
20260503193053 79 37 0.9 4.3 0.00 0.05 0.02 43 1021.1
20260503192546 79 14 0.9 4.3 0.00 0.05 0.02 42 1021.3
20260503192045 78 0 0.9 3.5 0.00 0.05 0.02 44 1021.2
20260503191603 78 0 0.0 5.2 0.00 0.05 0.02 42 1021.2
20260503191045 78 20 0.0 6.1 0.00 0.05 0.02 42 1021.4
20260503190546 78 0 0.9 6.1 0.00 0.05 0.02 40 1021.5
20260503190051 78 32 0.9 6.1 0.00 0.05 0.02 43 1021.6
20260503185545 78 0 0.0 6.1 0.00 0.05 0.02 44 1021.5
20260503185045 78 15 0.9 5.2 0.00 0.05 0.02 43 1021.6
20260503184611 78 0 1.7 5.2 0.00 0.05 0.02 43 1021.8
20260503184047 78 72 0.9 4.3 0.00 0.05 0.02 45 1021.7